Home > Time Zones > World Clock > Weather > Cuba > Havana > Past weeks

Flag for Cuba Weather past 2 weeks in Havana, Cuba

Now
77 °F

Passing clouds.


Feels Like: 79 °F
Forecast: 80 / 90 °F
Wind: 3 mph from East

Location: Aeropuerto Jose Marti - Rancho-Boyeros - Habana

Current Time: Jul 5, 2015 at 6:07:09 AM

Latest Report: Jul 5, 2015 at 4:55 AM


Visibility: 6 mi

Pressure: 30.09 "Hg

Humidity: 79%

Dew point: 70 °F

Location of HavanaLocation

Historic Weather in Havana — Graph

°F

Havana temperature yesterday

Maximum temperature yesterday: 91 °F (at 1:55 PM)
Minimum temperature yesterday: 75 °F (at 4:55 AM)
Average temperature yesterday: 82 °F

Past Weeks' High & Low Weather Summary

 TemperatureHumidityPressure
High93 °F (Jun 25, 2:55 PM)94% (Jun 20, 7:55 AM)30.15 "Hg (Jun 20, 7:55 AM)
Low70 °F (Jun 30, 4:55 AM)41% (Jun 25, 2:55 PM)30.01 "Hg (Jun 25, 5:55 PM)
Average82 °F71%30.08 "Hg
* Reported Jun 20 4:55 AM — Jul 5 4:55 AM, Havana, Weather by CustomWeather, © 2015

Note: Actual official high and low records may vary slightly from our data, if they occured in-between our weather recording intervals... More about our weather records

Advertising

Havana weather history for previous 24 hours

 ConditionsComfort  
Time TempWeatherWind HumidityBarometerVisibility
4:55 AM
Sun, Jul 5
77 °FPassing clouds.3 mph79%30.09 "Hg6 mi
3:55 AM77 °FPassing clouds.6 mph83%30.07 "Hg6 mi
2:55 AM77 °FPassing clouds.7 mph83%30.09 "Hg6 mi
1:55 AM77 °FPassing clouds.7 mph83%30.09 "Hg6 mi
12:55 AM77 °FPassing clouds.6 mph83%30.09 "Hg6 mi
11:55 PM
Sat, Jul 4
79 °FPassing clouds.6 mph79%30.09 "Hg6 mi
10:55 PM79 °FPassing clouds.9 mph79%30.09 "Hg6 mi
9:55 PM81 °FPassing clouds.8 mph74%30.07 "Hg6 mi
8:55 PM81 °FPassing clouds.8 mph70%30.04 "Hg6 mi
7:55 PM84 °FPassing clouds.9 mph66%30.04 "Hg6 mi
6:55 PM86 °FScattered clouds.12 mph62%30.04 "Hg6 mi
5:55 PM88 °FScattered clouds.16 mph62%30.04 "Hg6 mi
4:55 PM88 °FScattered clouds.14 mph62%30.04 "Hg6 mi
3:55 PM90 °FScattered clouds.15 mph59%30.04 "Hg6 mi
2:55 PM91 °FPartly sunny.12 mph56%30.04 "Hg6 mi
1:55 PM91 °FPartly sunny.7 mph49%30.07 "Hg6 mi
12:55 PM90 °FScattered clouds.8 mph52%30.07 "Hg6 mi
11:55 AM88 °FScattered clouds.8 mph55%30.09 "Hg6 mi
10:55 AM86 °FPassing clouds.10 mph59%30.07 "Hg6 mi
9:55 AM84 °FPassing clouds.12 mph66%30.07 "Hg6 mi
8:55 AM82 °FPassing clouds.8 mph70%30.07 "Hg6 mi
7:55 AM77 °FClear.6 mph83%30.07 "Hg6 mi
6:55 AM75 °FClear.5 mph83%30.07 "Hg6 mi
Weather by CustomWeather, © 2015

See weather overviewHow to use our weather pages